Le nostre stazioni meteo in Italia

Pubblicità
Il mio iltempo24.it
Ponza, Italia (16280): Temperatura & dewpoint: 16.10.2018 08:00:00 - 22.10.2018 08:00:00 (CEST)Ponza, Italia (16280): velocità del vento: 16.10.2018 08:00:00 - 22.10.2018 08:00:00 (CEST)Ponza, Italia (16280): direzione del vento: 16.10.2018 08:00:00 - 22.10.2018 08:00:00 (CEST)Ponza, Italia (16280): reduced air pressure: 16.10.2018 08:00:00 - 22.10.2018 08:00:00 (CEST)Ponza, Italia (16280): visibility: 16.10.2018 08:00:00 - 22.10.2018 08:00:00 (CEST)Ponza, Italia (16280): ore di luce: 16.10.2018 08:00:00 - 22.10.2018 08:00:00 (CEST)
Data & Tempo tt [°C] td [°C] ff [km/h] ff [kn] dd ppp [hPa] vv [km] sd [min]
22.10.2018 08:00:00 12,6 12,6 37 20 N 1008,5 6 -
22.10.2018 07:00:00 12,6 12,6 15 8 NNE 1009,0 3,0 -
22.10.2018 06:00:00 - - - - - - - -
22.10.2018 05:00:00 - - - - - - - -
22.10.2018 04:00:00 15,0 13,5 22 12 E 1009,8 10 -
22.10.2018 03:00:00 15,2 14,4 18 10 ENE 1011,8 20 -
22.10.2018 02:00:00 14,2 12,2 18 10 ENE 1011,7 20 -
22.10.2018 01:00:00 13,4 13,4 31 17 E 1009,9 20 -
22.10.2018 00:00:00 17,2 16,5 24 13 ENE 1013,1 8 -
21.10.2018 23:00:00 19,4 18,6 61 33 N 1013,6 4,0 -
21.10.2018 22:00:00 19,4 18,7 15 8 SSO 1011,9 10 -
21.10.2018 21:00:00 19,8 19,0 13 7 S 1012,5 10 -
21.10.2018 20:00:00 19,8 19,1 9 5 S 1012,9 10 -
21.10.2018 19:00:00 20,0 19,4 5 3 S 1013,3 10 -
21.10.2018 18:00:00 20,2 19,5 5 3 SSO 1013,5 10 0
21.10.2018 17:00:00 20,2 18,5 9 5 SSE 1013,7 10 0
21.10.2018 16:00:00 20,2 18,5 13 7 E 1014,4 20 18
21.10.2018 15:00:00 21,0 18,6 15 8 ESE 1014,7 20 60
21.10.2018 14:00:00 21,4 18,2 15 8 ESE 1015,3 20 60
21.10.2018 13:00:00 21,4 18,2 18 10 ESE 1016,5 10 60
21.10.2018 12:00:00 21,4 18,4 18 10 ESE 1017,0 10 36
21.10.2018 11:00:00 21,2 18,6 18 10 ESE 1018,3 10 36
21.10.2018 10:00:00 21,2 18,2 16 9 E 1017,8 10 60
21.10.2018 09:00:00 19,6 17,0 16 9 ESE 1017,4 10 60
21.10.2018 08:00:00 19,2 17,0 16 9 ESE 1017,7 10 24
21.10.2018 07:00:00 19,2 17,4 15 8 ESE 1017,7 10 -
21.10.2018 06:00:00 19,2 16,1 15 8 ESE 1017,8 10 -
21.10.2018 05:00:00 19,4 16,6 15 8 ESE 1018,4 10 -
21.10.2018 04:00:00 19,4 17,0 15 8 ESE 1018,7 10 -
21.10.2018 03:00:00 19,4 18,6 9 5 NE 1019,3 10 -
21.10.2018 02:00:00 19,4 18,9 8 4 NE 1019,5 10 -
21.10.2018 01:00:00 19,4 18,7 8 4 NNE 1019,3 10 -
21.10.2018 00:00:00 19,4 18,7 9 5 N 1019,2 10 -
20.10.2018 23:00:00 19,4 18,9 11 6 N 1019,3 8 -
20.10.2018 22:00:00 19,4 18,9 15 8 NNO 1018,8 8 -
20.10.2018 21:00:00 19,6 19,3 11 6 NO 1018,7 8 -
20.10.2018 20:00:00 19,8 19,6 9 5 O 1018,9 8 -
20.10.2018 19:00:00 20,0 19,7 9 5 ONO 1018,6 8 -
20.10.2018 18:00:00 20,8 20,5 8 4 ONO 1018,5 8 0
20.10.2018 17:00:00 21,8 21,1 11 6 O 1018,7 9 24
20.10.2018 16:00:00 22,0 21,5 11 6 O 1019,3 8 24
20.10.2018 15:00:00 22,0 21,5 8 4 O 1019,7 9 0
20.10.2018 14:00:00 22,4 21,7 8 4 ONO 1019,7 10 48
20.10.2018 13:00:00 22,8 20,3 5 3 N 1019,8 10 60
20.10.2018 12:00:00 23,2 18,7 4 2 NNE 1019,5 10 60
20.10.2018 11:00:00 22,2 19,0 4 2 E 1019,4 10 60
20.10.2018 10:00:00 21,4 18,6 9 5 ESE 1019,0 20 60
20.10.2018 09:00:00 20,6 18,7 13 7 ESE 1018,5 20 60
20.10.2018 08:00:00 19,8 17,2 13 7 ESE 1017,7 20 -
20.10.2018 07:00:00 19,0 14,9 13 7 SE 1017,6 20 -
20.10.2018 06:00:00 19,8 15,5 8 4 E 1017,6 20 -
20.10.2018 05:00:00 18,8 15,7 4 2 ESE 1017,6 20 -
20.10.2018 04:00:00 18,8 17,5 5 3 E 1017,7 20 -
20.10.2018 03:00:00 - - - - - - - -
20.10.2018 02:00:00 19,0 18,7 9 5 N 1017,3 20 -
20.10.2018 01:00:00 19,2 19,0 9 5 N 1017,2 20 -
20.10.2018 00:00:00 19,4 19,1 11 6 N 1017,2 20 -
19.10.2018 23:00:00 19,6 19,3 13 7 N 1016,6 20 -
19.10.2018 22:00:00 19,8 19,3 15 8 NNO 1016,5 20 -
19.10.2018 21:00:00 20,0 19,7 15 8 NNO 1015,7 20 -
19.10.2018 20:00:00 19,8 19,5 8 4 O 1015,6 20 -
19.10.2018 19:00:00 19,8 19,5 13 7 ONO 1015,5 20 -
19.10.2018 18:00:00 20,4 19,1 11 6 ONO 1014,6 20 48
19.10.2018 17:00:00 21,4 19,5 11 6 ONO 1014,3 20 60
19.10.2018 16:00:00 23,4 16,9 8 4 NNO 1014,1 20 60
19.10.2018 15:00:00 23,2 17,2 5 3 N 1014,3 20 60
19.10.2018 14:00:00 23,8 18,2 5 3 NNE 1014,3 20 60
19.10.2018 13:00:00 23,4 19,4 8 4 NNE 1014,4 20 60
19.10.2018 12:00:00 22,0 18,4 13 7 ENE 1014,6 20 60
19.10.2018 11:00:00 21,4 18,2 18 10 E 1014,4 20 60
19.10.2018 10:00:00 20,6 18,0 15 8 E 1014,3 15 60
19.10.2018 09:00:00 19,6 17,7 16 9 ENE 1013,9 15 60
19.10.2018 08:00:00 19,2 17,5 18 10 NE 1012,8 15 0
19.10.2018 07:00:00 19,6 17,7 18 10 ENE 1012,7 20 -
19.10.2018 06:00:00 19,8 17,9 18 10 ENE 1012,5 20 -
19.10.2018 05:00:00 19,8 17,9 26 14 ENE 1011,9 20 -
19.10.2018 04:00:00 20,0 18,3 26 14 ENE 1011,9 20 -
19.10.2018 03:00:00 20,0 17,4 21 11 ENE 1012,6 20 -
19.10.2018 02:00:00 20,0 19,2 21 11 ENE 1012,5 20 -
19.10.2018 01:00:00 20,2 18,0 22 12 ENE 1011,8 20 -
19.10.2018 00:00:00 20,4 18,0 22 12 ENE 1012,0 20 -
18.10.2018 23:00:00 21,0 17,8 24 13 ENE 1012,0 20 -
18.10.2018 22:00:00 20,8 18,2 22 12 NE 1011,5 20 -
18.10.2018 21:00:00 21,0 18,6 21 11 ENE 1011,3 20 -
18.10.2018 20:00:00 21,2 18,8 16 9 ENE 1010,9 20 -
18.10.2018 19:00:00 21,0 19,8 9 5 ENE 1010,2 20 -
18.10.2018 18:00:00 21,4 20,0 13 7 ESE 1010,0 20 30
18.10.2018 17:00:00 22,6 20,3 11 6 NE 1010,1 20 60
18.10.2018 16:00:00 22,6 19,4 13 7 ENE 1010,1 20 60
18.10.2018 15:00:00 22,6 19,2 16 9 ENE 1010,3 20 60
18.10.2018 14:00:00 22,4 19,4 18 10 E 1010,3 20 60
18.10.2018 13:00:00 22,2 19,0 21 11 ENE 1010,8 20 60
18.10.2018 12:00:00 21,8 18,8 24 13 NE 1011,2 20 60
18.10.2018 11:00:00 21,4 19,0 21 11 ENE 1011,4 20 60
18.10.2018 10:00:00 21,2 18,6 31 17 ENE 1011,4 20 60
18.10.2018 09:00:00 20,6 18,2 22 12 ENE 1011,2 20 24
18.10.2018 08:00:00 19,8 18,1 26 14 NE 1010,8 20 0
18.10.2018 07:00:00 19,8 17,9 24 13 SSE 1010,9 20 -
18.10.2018 06:00:00 19,8 17,8 26 14 SSE 1011,3 20 -
18.10.2018 05:00:00 20,2 18,5 21 11 NE 1010,3 20 -
18.10.2018 04:00:00 20,2 18,3 16 9 ENE 1011,3 20 -
18.10.2018 03:00:00 20,0 18,5 21 11 ENE 1011,7 20 -
18.10.2018 02:00:00 19,8 19,5 13 7 ENE 1012,6 20 -
18.10.2018 01:00:00 19,4 19,1 9 5 NE 1013,2 20 -
18.10.2018 00:00:00 19,4 18,9 11 6 NE 1013,6 20 -
17.10.2018 23:00:00 19,6 18,6 13 7 NE 1013,5 20 -
17.10.2018 22:00:00 19,6 18,3 8 4 NE 1013,5 20 -
17.10.2018 21:00:00 20,2 18,7 4 2 NE 1013,3 20 -
17.10.2018 20:00:00 20,4 17,6 8 4 S 1013,3 20 -
17.10.2018 19:00:00 20,2 18,3 8 4 SSE 1012,6 20 -
17.10.2018 18:00:00 20,2 19,7 8 4 SE 1012,4 20 30
17.10.2018 17:00:00 20,6 20,0 13 7 ESE 1013,3 20 24
17.10.2018 16:00:00 21,2 20,4 8 4 SE 1013,9 20 48
17.10.2018 15:00:00 21,8 19,9 11 6 ESE 1014,0 20 60
17.10.2018 14:00:00 22,6 20,5 13 7 ENE 1013,9 20 60
17.10.2018 13:00:00 21,2 19,9 11 6 NE 1014,7 20 60
17.10.2018 12:00:00 19,8 18,1 8 4 NE 1015,6 15 48
17.10.2018 11:00:00 18,2 17,4 5 3 OSO 1016,5 10 0
17.10.2018 10:00:00 20,0 19,0 15 8 ESE 1015,6 10 0
17.10.2018 09:00:00 20,0 19,2 18 10 E 1014,7 10 24
17.10.2018 08:00:00 20,0 19,2 16 9 E 1014,6 10 12
17.10.2018 07:00:00 - - - - - - - -
17.10.2018 06:00:00 20,2 19,4 18 10 ESE 1014,4 10 -
17.10.2018 05:00:00 20,0 19,4 21 11 ESE 1014,7 10 -
17.10.2018 04:00:00 - - - - - - - -
17.10.2018 03:00:00 20,0 19,0 21 11 ESE 1015,6 10 -
17.10.2018 02:00:00 20,0 19,2 16 9 ESE 1015,8 10 -
17.10.2018 01:00:00 20,2 19,5 18 10 ESE 1016,3 10 -
17.10.2018 00:00:00 20,2 19,4 22 12 ESE 1016,5 10 -
16.10.2018 23:00:00 20,0 19,4 18 10 ESE 1016,5 10 -
16.10.2018 22:00:00 20,0 19,4 15 8 ESE 1016,4 10 -
16.10.2018 21:00:00 20,2 19,7 18 10 ESE 1015,7 10 -
16.10.2018 20:00:00 20,2 20,0 18 10 ESE 1015,8 10 -
16.10.2018 19:00:00 20,2 20,0 16 9 ESE 1015,7 15 0
16.10.2018 18:00:00 20,4 20,2 18 10 ESE 1015,7 15 0
16.10.2018 17:00:00 20,8 20,5 16 9 ESE 1015,6 20 24
16.10.2018 16:00:00 21,0 20,3 21 11 ESE 1015,6 20 24
16.10.2018 15:00:00 21,0 19,5 22 12 ESE 1015,5 20 60
16.10.2018 14:00:00 21,0 19,7 22 12 E 1015,7 15 24
16.10.2018 13:00:00 20,8 19,8 21 11 E 1015,8 10 18
16.10.2018 12:00:00 21,0 19,7 18 10 E 1015,7 10 36
16.10.2018 11:00:00 20,4 19,4 16 9 E 1015,6 8 0
16.10.2018 10:00:00 20,6 19,6 21 11 E 1015,5 10 6
16.10.2018 09:00:00 20,6 19,2 18 10 ENE 1014,7 10 0
16.10.2018 08:00:00 20,0 18,8 18 10 E 1014,6 10 0

tt = Temperatura
td = dewpoint
ff = velocità del vento
dd = direzione del vento
ppp = reduced air pressure
vv = visibility
sd = ore di luce

Stazioni seguenti

WeatherPro
AMSI
MeteoEarth